| time (UTC) | temp F | wind direction | speed MPH | gust MPH | rain 1hr in | rain 24hr in | rain mn in | humidity % | barometer mb |
| 20260905230109 | 59 | 238 | 0.0 | 3.0 | 0.00 | 0.07 | 0.00 | 69 | 1022.4 |
| 20260905224519 | 59 | 238 | 0.0 | 3.0 | 0.00 | 0.07 | 0.00 | 67 | 1022.2 |
| 20260905223035 | 59 | 231 | 0.0 | 3.0 | 0.00 | 0.07 | 0.00 | 66 | 1022.2 |
| 20260905221555 | 60 | 229 | 2.0 | 5.0 | 0.00 | 0.07 | 0.00 | 65 | 1022.1 |
| 20260905220025 | 61 | 236 | 0.0 | 5.0 | 0.00 | 0.07 | 0.00 | 64 | 1022.0 |
| 20260905214505 | 61 | 209 | 1.0 | 5.0 | 0.00 | 0.07 | 0.07 | 62 | 1021.9 |
| 20260905213023 | 62 | 257 | 1.0 | 4.0 | 0.00 | 0.07 | 0.07 | 61 | 1021.9 |
| 20260905211518 | 62 | 256 | 2.0 | 6.0 | 0.00 | 0.07 | 0.07 | 60 | 1021.6 |
| 20260905210108 | 62 | 223 | 4.0 | 8.0 | 0.00 | 0.07 | 0.07 | 59 | 1021.5 |
| 20260905204537 | 62 | 242 | 3.0 | 7.0 | 0.00 | 0.07 | 0.07 | 59 | 1021.4 |
| 20260905203131 | 62 | 246 | 2.0 | 10.0 | 0.00 | 0.07 | 0.07 | 60 | 1021.2 |
| 20260905201513 | 62 | 235 | 2.0 | 9.0 | 0.00 | 0.07 | 0.07 | 60 | 1021.0 |
| 20260905200101 | 62 | 232 | 1.0 | 5.0 | 0.00 | 0.07 | 0.07 | 60 | 1020.8 |
| 20260905194535 | 63 | 220 | 2.0 | 5.0 | 0.00 | 0.07 | 0.07 | 59 | 1020.6 |
| 20260905193029 | 64 | 234 | 1.0 | 7.0 | 0.00 | 0.07 | 0.07 | 58 | 1020.3 |
| 20260905191549 | 63 | 269 | 3.0 | 8.0 | 0.00 | 0.07 | 0.07 | 58 | 1020.2 |
| 20260905190054 | 64 | 270 | 3.0 | 7.0 | 0.00 | 0.07 | 0.07 | 59 | 1020.0 |
| 20260905184514 | 65 | 244 | 1.0 | 5.0 | 0.00 | 0.07 | 0.07 | 57 | 1019.9 |
| 20260905183051 | 65 | 280 | 3.0 | 7.0 | 0.00 | 0.07 | 0.07 | 55 | 1019.7 |
| 20260905181540 | 66 | 267 | 1.0 | 4.0 | 0.00 | 0.07 | 0.07 | 54 | 1019.6 |
| 20260905180001 | 67 | 262 | 1.0 | 7.0 | 0.00 | 0.07 | 0.07 | 52 | 1019.2 |
| 20260905174552 | 68 | 276 | 4.0 | 9.0 | 0.00 | 0.07 | 0.07 | 50 | 1019.0 |
| 20260905173051 | 69 | 254 | 3.0 | 9.0 | 0.00 | 0.07 | 0.07 | 49 | 1018.7 |
| 20260905171539 | 69 | 348 | 7.0 | 15.0 | 0.00 | 0.07 | 0.07 | 47 | 1018.6 |
| 20260905170039 | 70 | 300 | 4.0 | 14.0 | 0.00 | 0.07 | 0.07 | 48 | 1018.4 |
| 20260905164512 | 70 | 311 | 3.0 | 14.0 | 0.00 | 0.07 | 0.07 | 47 | 1018.0 |
| 20260905163101 | 71 | 314 | 5.0 | 13.0 | 0.00 | 0.07 | 0.07 | 47 | 1017.8 |
| 20260905161535 | 71 | 280 | 5.0 | 15.0 | 0.00 | 0.07 | 0.07 | 47 | 1017.6 |
| 20260905160014 | 72 | 305 | 4.0 | 9.0 | 0.00 | 0.07 | 0.07 | 46 | 1017.4 |
| 20260905154556 | 72 | 284 | 5.0 | 14.0 | 0.00 | 0.07 | 0.07 | 46 | 1017.3 |
| 20260905153039 | 72 | 296 | 5.0 | 11.0 | 0.00 | 0.07 | 0.07 | 46 | 1017.2 |
| 20260905151506 | 73 | 300 | 8.0 | 18.0 | 0.00 | 0.07 | 0.07 | 44 | 1017.1 |
| 20260905150017 | 73 | 309 | 9.0 | 17.0 | 0.00 | 0.07 | 0.07 | 44 | 1017.1 |
| 20260905144506 | 72 | 257 | 5.0 | 16.0 | 0.00 | 0.07 | 0.07 | 46 | 1017.1 |
| 20260905143048 | 72 | 303 | 5.0 | 16.0 | 0.00 | 0.07 | 0.07 | 47 | 1017.1 |
| 20260905141602 | 73 | 269 | 7.0 | 16.0 | 0.00 | 0.07 | 0.07 | 45 | 1017.0 |
| 20260905140108 | 73 | 268 | 9.0 | 14.0 | 0.00 | 0.07 | 0.07 | 45 | 1017.0 |
| 20260905134602 | 72 | 197 | 9.0 | 17.0 | 0.00 | 0.07 | 0.07 | 48 | 1017.0 |
| 20260905133004 | 70 | 225 | 6.0 | 16.0 | 0.00 | 0.07 | 0.07 | 50 | 1017.1 |
| 20260905131509 | 71 | 251 | 6.0 | 16.0 | 0.00 | 0.07 | 0.07 | 50 | 1017.1 |
| 20260905130041 | 71 | 333 | 6.0 | 21.0 | 0.00 | 0.07 | 0.07 | 50 | 1017.1 |
| 20260905124555 | 71 | 242 | 8.0 | 16.0 | 0.00 | 0.07 | 0.07 | 47 | 1017.2 |
| 20260905123035 | 72 | 242 | 9.0 | 22.0 | 0.00 | 0.07 | 0.07 | 47 | 1017.3 |
| 20260905121510 | 72 | 229 | 10.0 | 17.0 | 0.00 | 0.07 | 0.07 | 46 | 1017.4 |
| 20260905120020 | 72 | 243 | 7.0 | 20.0 | 0.00 | 0.07 | 0.07 | 50 | 1017.4 |
| 20260905114512 | 71 | 258 | 8.0 | 19.0 | 0.00 | 0.07 | 0.07 | 53 | 1017.4 |
| 20260905113026 | 70 | 246 | 6.0 | 19.0 | 0.00 | 0.07 | 0.07 | 57 | 1017.5 |
| 20260905111515 | 69 | 250 | 7.0 | 13.0 | 0.00 | 0.07 | 0.07 | 56 | 1017.6 |
| 20260905110004 | 69 | 301 | 5.0 | 15.0 | 0.00 | 0.07 | 0.07 | 58 | 1017.6 |
| 20260905104518 | 69 | 241 | 6.0 | 16.0 | 0.00 | 0.07 | 0.07 | 57 | 1017.5 |
| 20260905103027 | 69 | 241 | 5.0 | 21.0 | 0.00 | 0.07 | 0.07 | 61 | 1017.6 |
| 20260905101558 | 68 | 261 | 5.0 | 13.0 | 0.00 | 0.07 | 0.07 | 62 | 1017.5 |
| 20260905100057 | 67 | 286 | 6.0 | 19.0 | 0.00 | 0.07 | 0.07 | 63 | 1017.6 |
| 20260905094511 | 66 | 222 | 5.0 | 19.0 | 0.00 | 0.07 | 0.07 | 66 | 1017.6 |
| 20260905093129 | 66 | 210 | 6.0 | 18.0 | 0.00 | 0.07 | 0.07 | 66 | 1017.7 |
| 20260905091547 | 67 | 254 | 4.0 | 10.0 | 0.00 | 0.07 | 0.07 | 66 | 1017.8 |
| 20260905090058 | 66 | 203 | 6.0 | 13.0 | 0.00 | 0.07 | 0.07 | 66 | 1017.7 |
| 20260905084548 | 66 | 249 | 3.0 | 14.0 | 0.00 | 0.07 | 0.07 | 70 | 1017.6 |
| 20260905083114 | 65 | 254 | 6.0 | 16.0 | 0.00 | 0.07 | 0.07 | 71 | 1017.8 |
| 20260905081604 | 64 | 209 | 8.0 | 18.0 | 0.00 | 0.07 | 0.07 | 72 | 1017.6 |
| 20260905080036 | 63 | 229 | 6.0 | 20.0 | 0.00 | 0.07 | 0.07 | 75 | 1017.4 |
| 20260905074600 | 63 | 228 | 6.0 | 13.0 | 0.00 | 0.07 | 0.07 | 77 | 1017.3 |
| 20260905073029 | 63 | 192 | 6.0 | 18.0 | 0.00 | 0.07 | 0.07 | 77 | 1017.1 |
| 20260905071529 | 62 | 224 | 7.0 | 16.0 | 0.00 | 0.07 | 0.07 | 80 | 1016.9 |
| 20260905070050 | 61 | 257 | 7.0 | 19.0 | 0.00 | 0.07 | 0.07 | 82 | 1017.2 |
| 20260905064508 | 61 | 225 | 8.0 | 19.0 | 0.00 | 0.07 | 0.07 | 84 | 1017.1 |
| 20260905063028 | 60 | 217 | 7.0 | 15.0 | 0.00 | 0.07 | 0.07 | 88 | 1017.0 |
| 20260905061610 | 59 | 223 | 5.0 | 11.0 | 0.00 | 0.07 | 0.07 | 90 | 1016.9 |
| 20260905060038 | 58 | 242 | 3.0 | 11.0 | 0.00 | 0.07 | 0.07 | 90 | 1016.6 |
| 20260905054532 | 58 | 210 | 3.0 | 9.0 | 0.00 | 0.07 | 0.07 | 91 | 1016.5 |
| 20260905053107 | 58 | 217 | 3.0 | 8.0 | 0.00 | 0.07 | 0.07 | 91 | 1016.3 |
| 20260905051522 | 58 | 236 | 3.0 | 5.0 | 0.00 | 0.07 | 0.07 | 91 | 1016.1 |
| 20260905050104 | 58 | 227 | 1.0 | 6.0 | 0.02 | 0.07 | 0.07 | 91 | 1015.8 |
| 20260905044527 | 58 | 304 | 0.0 | 3.0 | 0.03 | 0.07 | 0.07 | 91 | 1015.5 |
| 20260905043004 | 58 | 305 | 1.0 | 4.0 | 0.05 | 0.07 | 0.07 | 90 | 1015.5 |
| 20260905041504 | 59 | 242 | 2.0 | 9.0 | 0.07 | 0.07 | 0.07 | 89 | 1014.7 |
| 20260905040058 | 59 | 221 | 3.0 | 7.0 | 0.06 | 0.06 | 0.06 | 89 | 1014.5 |
| 20260905034541 | 59 | 192 | 2.0 | 6.0 | 0.04 | 0.04 | 0.04 | 86 | 1015.0 |
| 20260905033104 | 60 | 217 | 5.0 | 11.0 | 0.02 | 0.02 | 0.02 | 83 | 1015.1 |
| 20260905031541 | 61 | 261 | 4.0 | 10.0 | 0.00 | 0.00 | 0.00 | 79 | 1015.1 |
| 20260905030023 | 61 | 228 | 6.0 | 14.0 | 0.00 | 0.00 | 0.00 | 78 | 1015.0 |
| 20260905024600 | 61 | 250 | 3.0 | 9.0 | 0.00 | 0.00 | 0.00 | 77 | 1015.1 |
| 20260905023051 | 61 | 279 | 4.0 | 9.0 | 0.00 | 0.00 | 0.00 | 76 | 1014.3 |
| 20260905021505 | 62 | 238 | 4.0 | 9.0 | 0.00 | 0.00 | 0.00 | 75 | 1014.4 |
| 20260905020034 | 62 | 232 | 0.0 | 7.0 | 0.00 | 0.00 | 0.00 | 75 | 1014.0 |
| 20260905014524 | 63 | 263 | 4.0 | 9.0 | 0.00 | 0.00 | 0.00 | 70 | 1014.2 |
| 20260905013102 | 65 | 360 | 5.0 | 9.0 | 0.00 | 0.00 | 0.00 | 65 | 1013.8 |
| 20260905011612 | 65 | 306 | 4.0 | 9.0 | 0.00 | 0.00 | 0.00 | 66 | 1013.5 |
| 20260905010107 | 65 | 252 | 3.0 | 12.0 | 0.00 | 0.00 | 0.00 | 67 | 1013.6 |
| 20260905004507 | 66 | 252 | 5.0 | 9.0 | 0.00 | 0.00 | 0.00 | 67 | 1013.6 |
| 20260905003109 | 66 | 296 | 4.0 | 10.0 | 0.00 | 0.00 | 0.00 | 66 | 1013.4 |
| 20260905001537 | 66 | 298 | 4.0 | 12.0 | 0.00 | 0.00 | 0.00 | 64 | 1013.2 |
| 20260905000027 | 66 | 307 | 4.0 | 15.0 | 0.00 | 0.00 | 0.00 | 66 | 1013.1 |
| 20260904234557 | 66 | 324 | 6.0 | 14.0 | 0.00 | 0.00 | 0.00 | 68 | 1013.2 |
| 20260904233047 | 66 | 279 | 6.0 | 14.0 | 0.00 | 0.00 | 0.00 | 71 | 1012.9 |
| 20260904231539 | 66 | 310 | 5.0 | 11.0 | 0.00 | 0.00 | 0.00 | 72 | 1012.9 |